Hourly Weather Aqtobe

Today, 9 May, Sunday

Time Temperature Precipitation Wind Pressure Humidity
00:00 +14°C° 0 mm 1 mps 741 mmHg 62%
01:00 +14°C° 0 mm 1 mps 741 mmHg 62%
02:00 +13°C° 0 mm 1 mps 741 mmHg 63%
03:00 +13°C° 0 mm 1 mps 741 mmHg 64%
04:00 +13°C° 0 mm 1 mps 741 mmHg 66%
05:00 +14°C° 0 mm 2 mps 742 mmHg 62%
06:00 +15°C° 0 mm 2 mps 742 mmHg 58%
07:00 +17°C° 0 mm 2 mps 742 mmHg 53%
08:00 +18°C° 0 mm 2 mps 742 mmHg 48%
09:00 +20°C° 0 mm 3 mps 742 mmHg 42%
10:00 +21°C° 0 mm 3 mps 742 mmHg 37%
11:00 +22°C° 0 mm 4 mps 742 mmHg 35%
12:00 +23°C° 0 mm 4 mps 742 mmHg 33%
13:00 +23°C° 0 mm 4 mps 742 mmHg 31%
14:00 +23°C° 0 mm 4 mps 742 mmHg 30%
15:00 +23°C° 0 mm 4 mps 742 mmHg 30%
16:00 +25°C° 0 mm 5 mps 742 mmHg 30%
17:00 +22°C° 0 mm 4 mps 742 mmHg 35%
18:00 +21°C° 0 mm 3 mps 742 mmHg 40%
19:00 +20°C° 0 mm 3 mps 742 mmHg 45%
20:00 +19°C° 0 mm 3 mps 742 mmHg 49%
21:00 +17°C° 0 mm 2 mps 742 mmHg 52%
22:00 +16°C° 0 mm 2 mps 742 mmHg 55%
23:00 +15°C° 0 mm 2 mps 742 mmHg 57%

Tomorrow, 10 May, Monday

Time Temperature Precipitation Wind Pressure Humidity
00:00 +15°C° 0 mm 1 mps 742 mmHg 58%
01:00 +14°C° 0 mm 1 mps 742 mmHg 60%
02:00 +14°C° 0 mm 1 mps 742 mmHg 60%
03:00 +14°C° 0 mm 1 mps 743 mmHg 60%
04:00 +14°C° 0 mm 1 mps 743 mmHg 60%
05:00 +14°C° 0 mm 2 mps 743 mmHg 59%
06:00 +14°C° 0 mm 3 mps 743 mmHg 59%
07:00 +15°C° 0 mm 4 mps 744 mmHg 58%
08:00 +18°C° 0 mm 4 mps 744 mmHg 54%
09:00 +19°C° 0 mm 4 mps 744 mmHg 49%
10:00 +21°C° 0 mm 4 mps 744 mmHg 45%
11:00 +21°C° 0 mm 4 mps 744 mmHg 42%
12:00 +22°C° 0 mm 4 mps 744 mmHg 40%
13:00 +23°C° 0 mm 4 mps 744 mmHg 38%
14:00 +22°C° 0 mm 5 mps 744 mmHg 40%
15:00 +22°C° 0 mm 6 mps 744 mmHg 42%
16:00 +22°C° 0 mm 6 mps 744 mmHg 44%
17:00 +21°C° 0 mm 6 mps 744 mmHg 48%
18:00 +20°C° 0 mm 5 mps 745 mmHg 52%
19:00 +19°C° 0 mm 4 mps 745 mmHg 55%
20:00 +18°C° 0 mm 4 mps 745 mmHg 58%
21:00 +17°C° 0 mm 4 mps 746 mmHg 60%
22:00 +15°C° 0 mm 4 mps 746 mmHg 62%
23:00 +15°C° 0 mm 4 mps 746 mmHg 64%

Day after tomorrow, 11 May, Tuesday

Time Temperature Precipitation Wind Pressure Humidity
00:00 +14°C° 0 mm 3 mps 746 mmHg 66%
01:00 +13°C° 0 mm 3 mps 746 mmHg 68%
02:00 +12°C° 0 mm 3 mps 746 mmHg 69%
03:00 +12°C° 0 mm 3 mps 747 mmHg 70%
04:00 +13°C° 0 mm 2 mps 747 mmHg 71%
05:00 +14°C° 0 mm 2 mps 747 mmHg 67%
06:00 +14°C° 0 mm 3 mps 748 mmHg 63%
07:00 +16°C° 0 mm 3 mps 748 mmHg 59%
08:00 +18°C° 0 mm 3 mps 748 mmHg 54%
09:00 +19°C° 0 mm 3 mps 749 mmHg 50%
10:00 +21°C° 0 mm 3 mps 749 mmHg 45%
11:00 +21°C° 0 mm 4 mps 749 mmHg 41%
12:00 +22°C° 0 mm 4 mps 749 mmHg 38%
13:00 +23°C° 0 mm 4 mps 749 mmHg 34%
14:00 +23°C° 0 mm 5 mps 749 mmHg 32%
15:00 +23°C° 0 mm 5 mps 748 mmHg 31%
16:00 +23°C° 0 mm 5 mps 748 mmHg 29%
17:00 +22°C° 0 mm 4 mps 748 mmHg 34%
18:00 +21°C° 0 mm 4 mps 749 mmHg 39%
19:00 +20°C° 0 mm 3 mps 749 mmHg 44%
20:00 +18°C° 0 mm 3 mps 749 mmHg 47%
21:00 +17°C° 0 mm 3 mps 749 mmHg 49%
22:00 +15°C° 0 mm 4 mps 749 mmHg 52%
23:00 +14°C° 0 mm 3 mps 749 mmHg 50%

12 May, Wednesday

Time Temperature Precipitation Wind Pressure Humidity
00:00 +14°C° 0 mm 3 mps 749 mmHg 48%
01:00 +13°C° 0 mm 3 mps 750 mmHg 46%
02:00 +13°C° 0 mm 3 mps 750 mmHg 48%
03:00 +12°C° 0 mm 3 mps 750 mmHg 50%
04:00 +12°C° 0 mm 3 mps 750 mmHg 53%
05:00 +13°C° 0 mm 3 mps 750 mmHg 51%
06:00 +14°C° 0 mm 3 mps 750 mmHg 50%
07:00 +16°C° 0 mm 3 mps 751 mmHg 48%
08:00 +18°C° 0 mm 4 mps 751 mmHg 43%
09:00 +19°C° 0 mm 4 mps 751 mmHg 38%
10:00 +21°C° 0 mm 4 mps 751 mmHg 33%
11:00 +21°C° 0 mm 4 mps 751 mmHg 31%
12:00 +22°C° 0 mm 5 mps 751 mmHg 29%
13:00 +23°C° 0 mm 5 mps 750 mmHg 28%
14:00 +23°C° 0 mm 5 mps 750 mmHg 27%
15:00 +25°C° 0 mm 4 mps 750 mmHg 27%
16:00 +25°C° 0 mm 4 mps 750 mmHg 26%
17:00 +23°C° 0 mm 4 mps 750 mmHg 31%
18:00 +22°C° 0 mm 3 mps 750 mmHg 35%
19:00 +20°C° 0 mm 3 mps 750 mmHg 40%
20:00 +19°C° 0 mm 3 mps 750 mmHg 41%
21:00 +18°C° 0 mm 3 mps 750 mmHg 42%
22:00 +17°C° 0 mm 3 mps 749 mmHg 43%
23:00 +16°C° 0 mm 2 mps 749 mmHg 43%

13 May, Thursday

Time Temperature Precipitation Wind Pressure Humidity
00:00 +16°C° 0 mm 2 mps 749 mmHg 44%
01:00 +15°C° 0 mm 2 mps 749 mmHg 45%
02:00 +15°C° 0 mm 2 mps 749 mmHg 45%
03:00 +15°C° 0 mm 2 mps 749 mmHg 46%
04:00 +14°C° 0 mm 2 mps 749 mmHg 46%
05:00 +16°C° 0 mm 2 mps 749 mmHg 44%
06:00 +17°C° 0 mm 2 mps 749 mmHg 42%
07:00 +19°C° 0 mm 2 mps 750 mmHg 40%
08:00 +20°C° 0 mm 2 mps 750 mmHg 37%
09:00 +22°C° 0 mm 3 mps 750 mmHg 34%
10:00 +25°C° 0 mm 3 mps 750 mmHg 30%
11:00 +26°C° 0 mm 4 mps 750 mmHg 29%
12:00 +26°C° 0 mm 4 mps 749 mmHg 29%
13:00 +27°C° 0 mm 4 mps 749 mmHg 28%
14:00 +27°C° 0 mm 4 mps 749 mmHg 28%
15:00 +27°C° 0 mm 4 mps 749 mmHg 29%
16:00 +27°C° 0 mm 5 mps 749 mmHg 29%
17:00 +26°C° 0 mm 4 mps 749 mmHg 34%
18:00 +25°C° 0 mm 3 mps 749 mmHg 40%
19:00 +24°C° 0 mm 3 mps 749 mmHg 45%
20:00 +21°C° 0 mm 3 mps 749 mmHg 47%
21:00 +20°C° 0 mm 2 mps 749 mmHg 49%
22:00 +18°C° 0 mm 2 mps 749 mmHg 50%
23:00 +18°C° 0 mm 2 mps 749 mmHg 51%

14 May, Friday

Time Temperature Precipitation Wind Pressure Humidity
00:00 +17°C° 0 mm 2 mps 749 mmHg 52%
01:00 +18°C° 0 mm 1 mps 749 mmHg 53%
02:00 +17°C° 0 mm 2 mps 749 mmHg 54%
03:00 +16°C° 0 mm 2 mps 750 mmHg 55%
04:00 +16°C° 0 mm 2 mps 750 mmHg 56%
05:00 +17°C° 0 mm 3 mps 750 mmHg 54%
06:00 +18°C° 0 mm 3 mps 750 mmHg 53%
07:00 +19°C° 0 mm 3 mps 751 mmHg 52%
08:00 +21°C° 0 mm 4 mps 751 mmHg 47%
09:00 +22°C° 0 mm 4 mps 751 mmHg 42%
10:00 +25°C° 0 mm 5 mps 751 mmHg 37%
11:00 +26°C° 0 mm 5 mps 751 mmHg 37%
12:00 +26°C° 0 mm 6 mps 750 mmHg 36%
13:00 +27°C° 0 mm 6 mps 750 mmHg 35%
14:00 +27°C° 0 mm 6 mps 750 mmHg 34%
15:00 +27°C° 0 mm 5 mps 750 mmHg 34%
16:00 +27°C° 0 mm 5 mps 750 mmHg 33%
17:00 +26°C° 0 mm 4 mps 750 mmHg 38%
18:00 +25°C° 0 mm 4 mps 750 mmHg 42%
19:00 +24°C° 0 mm 3 mps 750 mmHg 47%
20:00 +21°C° 0 mm 3 mps 750 mmHg 48%
21:00 +20°C° 0 mm 2 mps 750 mmHg 49%
22:00 +19°C° 0 mm 2 mps 750 mmHg 51%
23:00 +18°C° 0 mm 2 mps 749 mmHg 52%
Show more